www.pogodaiklimat.ru

Архив погоды в Ванаваре (Эвенкия, Россия)

Время
(UTC), дата
00 8.07
03 8.07
06 8.07
09 8.07
12 8.07
15 8.07
18 8.07
21 8.07
00 9.07
03 9.07
06 9.07
09 9.07
12 9.07
15 9.07
18 9.07
21 9.07
00 10.07
03 10.07
06 10.07
09 10.07
12 10.07
15 10.07
18 10.07
21 10.07
00 11.07
03 11.07
06 11.07
09 11.07
12 11.07
15 11.07
18 11.07
21 11.07
00 12.07
03 12.07
06 12.07
09 12.07
12 12.07
15 12.07
18 12.07
21 12.07
00 13.07
03 13.07
06 13.07
09 13.07
12 13.07
15 13.07
18 13.07
21 13.07
00 14.07
03 14.07
06 14.07
09 14.07
12 14.07
15 14.07
18 14.07
21 14.07
Ветер
(напр.,м/с)
Видим. Явления Облачность Т
(С)
Тd
(С)
f
(%)
Тe
(С)
Тes
(С)
Комфортность P
(гПа)
Po
(гПа)
Тmin
(С)
Tmax
(С)
R
(мм)
R24
(мм)
S
(см)
ЮЗ 1 4000 м дымка {гроза, ливн. дождь} 10/6 600 м
[Cb cap Ac trans Ci fib]
+19.9 +19.4 97 +24 +25 комфорт 998.5 969.0 +18.6 7
З 1 20 км 9/9 600 м
[Cb cap]
+24.9 +19.9 74 +30 +32 душно 997.8 968.8
З 1 20 км {гроза, ливн. дождь} 6/6 600 м
[Cu med, cong]
+26.1 +18.7 64 +31 +37 очень душно 998.5 969.6
СЗ 2 20 км 10/8 600 м
[Cb cap Ci fib]
+26.7 +17.6 57 +31 +32 душно 999.5 970.7
СВ 1 20 км 9/9 600 м
[Cb cap]
+23.8 +18.2 71 +28 +28 душно 1000.7 971.5 +27.5 0.0
СВ 1 {10} 10 км гроза, ливневой дождь 10/10 600 м
[Cb cap]
+18.7 +18.7 100 +21 +21 комфорт 1002.8 973.0
штиль 0 4000 м дымка {гроза, ливн. дождь} 10/10 600 м
[Cb cap]
+18.0 +18.0 100 +18 +18 1002.6 972.8
штиль 0 4000 м дымка 8/6 1000 м
[Sc Ac trans]
+18.1 +18.1 100 +18 +18 1002.8 973.0
Ю 1 4000 м 10/10 600 м
[Cb cap]
+18.5 +18.5 100 +21 +21 комфорт 1003.5 973.7 +17.6 15
З 1 20 км 10/10 300 м
[Cb cap]
+20.7 +20.3 98 +27 +27 душно 1003.4 973.9
ЮЗ 2 20 км 8/8 1000 м
[Cu med, cong Ci fib]
+26.4 +18.0 60 +31 +34 душно 1002.5 973.5
З 2 20 км 8/6 1000 м
[Cu med, cong Ci fib]
+27.8 +17.7 54 +32 +35 душно 1002.8 973.9
З 1 20 км в посл. час гроза 6/5 600 м
[Cb cap Ci fib]
+26.9 +17.2 55 +31 +32 душно 1003.6 974.6 +28.3
ЮЗ 1 20 км {гроза} 8/3 1000 м
[Sc Ci fib]
+18.5 +18.0 97 +20 +20 1005.1 975.3
СВ 1 4000 м дымка {гроза} 6/0
[Ci fib]
+15.0 +15.0 100 +15 +15 1006.0 975.7
штиль 0 4000 м дымка ясно +13.6 +13.6 100 +13 +13 1006.7 976.3
штиль 0 20 км 8/0
[Ci fib]
+20.0 +16.7 81 +22 +27 комфорт 1006.0 976.2 +13.4
ЮЗ 1 20 км 9/1 1000 м
[Cu med, cong Ci fib]
+25.5 +15.7 55 +29 +38 душно 1005.4 976.2
ЮЗ 1 20 км 6/4 1000 м
[Cu med, cong Ci fib]
+28.3 +14.7 43 +31 +39 душно 1004.3 975.4
штиль 0 20 км 10/5 600 м
[Cb cap Ac trans Ci fib]
+27.9 +17.0 52 +32 +34 душно 1003.8 974.9
З 1 20 км в посл. час ливневой дождь {гроза} 10/4 1000 м
[Sc Ac trans Cs]
+22.5 +19.7 84 +29 +29 очень душно 1004.2 974.8 +29.8 0.6
штиль 0 20 км слаб. ливневой дождь 10/10 600 м
[Cb cap]
+20.6 +20.1 97 +25 +25 комфорт 1005.2 975.6
Ю 1 20 км {ливн. дождь} 6/6 600 м
[Sc]
+19.3 +19.3 100 +23 +23 комфорт 1005.0 975.3
Ю 1 4000 м дымка ясно +18.7 +18.6 99 +21 +21 комфорт 1005.6 975.8
З 1 4000 м дымка 10/10 300 м
[St]
+19.6 +19.5 99 +23 +23 комфорт 1005.7 975.9 +18.6 0.5
ЮЗ 1 20 км {морось} 10/10 600 м
[Cb cap]
+22.2 +19.1 83 +28 +28 душно 1005.9 976.4
ЮЗ 2 20 км {морось} 8/4 1000 м
[Cu med, cong Ci fib]
+26.1 +18.1 61 +31 +37 очень душно 1004.7 975.6
ЮЗ 1 20 км 8/3 1000 м
[Cu med, cong Ac trans Ci sp]
+27.7 +16.6 51 +31 +35 душно 1003.6 974.7
штиль 0 20 км 10/6 600 м
[Cb cap Ac trans Ci fib]
+26.9 +17.3 56 +31 +31 душно 1003.7 974.7 +29.1 0.0
штиль 0 20 км 10/3 1000 м
[Sc Ac trans Ci fib]
+20.6 +18.8 89 +24 +24 комфорт 1003.9 974.4
ЮЗ 1 20 км 10/8 600 м
[Cb cap Ci fib]
+19.3 +18.4 95 +23 +23 комфорт 1003.5 973.8
В 2 2000 м гроза, ливневой дождь 10/10 600 м
[Cb cap]
+19.2 +19.2 100 +22 +22 комфорт 1003.8 974.1
СВ 1 10 км слаб. ливневой дождь {гроза} 10/9 300 м
[Cb cap Ci fib]
+19.6 +19.5 99 +23 +24 комфорт 1002.1 972.5 +18.5 14
СВ 1 4000 м в посл. час ливневой дождь 10/10 600 м
[Cb cap]
+20.9 +20.9 100 +27 +27 душно 1002.0 972.5
ЮЗ 1 4000 м дымка {ливн. дождь} 9/8 600 м
[Cb cap Ac trans]
+24.6 +20.6 78 +31 +33 очень душно 1001.9 972.8
З 1 20 км 8/6 600 м
[Cb cap Ac trans]
+26.1 +21.1 74 +33 +35 очень душно 1001.4 972.5
З 1 20 км 10/8 600 м
[Cb cap Ac trans]
+23.7 +19.8 79 +29 +29 душно 1002.6 973.4 +26.5 1
штиль 0 4000 м гроза, ливневой дождь 10/10 600 м
[Cb cap]
+20.6 +20.6 100 +25 +25 комфорт 1003.3 973.8
штиль 0 20 км {гроза, ливн. дождь} 10/10 600 м
[Cb cap]
+19.0 +18.9 99 +21 +21 комфорт 1003.0 973.3
СЗ 1 4000 м слаб. ливневой дождь 10/10 600 м
[Cb cap]
+18.3 +18.3 100 +20 +20 1003.7 973.9
штиль 0 20 км в посл. час ливневой дождь 10/10 600 м
[Cb cap]
+18.9 +18.8 99 +20 +20 1003.5 973.7 +18.1 17
З 1 2000 м ливневой дождь 10/10 600 м
[Cb cap]
+18.9 +18.9 100 +22 +22 комфорт 1003.1 973.4
штиль 0 10 км гроза, ливневой дождь 10/10 600 м
[Cb cap]
+19.0 +19.0 100 +21 +21 комфорт 1003.0 973.3
штиль 0 2000 м слаб. ливневой дождь {гроза} 10/10 600 м
[Cb cap]
+18.4 +18.3 99 +19 +19 1002.3 972.5
штиль 0 1000 м слаб. ливневой дождь {гроза} 10/10 600 м
[Cb cap]
+18.4 +18.4 100 +19 +19 1002.5 972.8 +19.4 35
штиль 0 1000 м слаб. ливневой дождь 10/10 600 м
[Cb cap]
+18.0 +18.0 100 +18 +18 1002.4 972.6
штиль 0 2000 м {ливн. дождь} 10/10 600 м
[Cb cap]
+17.4 +17.4 100 +17 +17 1002.2 972.4
ЮЗ 1 2000 м {ливн. дождь} 10/10 600 м
[Cb cap]
+16.6 +16.5 99 +17 +17 1002.5 972.5
штиль 0 1000 м {ливн. дождь} 10/10 600 м
[Cb cap]
+16.0 +15.9 99 +16 +16 1002.6 972.5 +15.9 11
ЮЗ 2 1000 м дымка 10/10 600 м
[Cb cap]
+16.0 +16.0 100 +16 +16 1003.1 973.1
ЮЗ 2 1000 м слаб. морось 10/10 300 м
[St]
+16.3 +16.3 100 +16 +16 1004.1 974.1
ЮЗ 1 20 км {морось} 10/10 600 м
[Cb cap]
+17.6 +16.5 93 +19 +19 1004.3 974.4
ЮЗ 1 20 км {морось} 10/10 600 м
[Cb cap]
+17.5 +16.4 93 +19 +19 1005.3 975.4 +17.9 0.3
штиль 0 20 км 10/10 600 м
[Cb cap]
+16.5 +16.2 98 +16 +16 1005.8 975.7
штиль 0 4000 м дымка 10/10 600 м
[Cb cap]
+16.1 +15.9 99 +16 +16 1005.9 975.8
штиль 0 4000 м слаб. морось 10/10 300 м
[St]
+16.0 +16.0 100 +16 +16 1006.1 975.9
Местоположение метеостанции Ванавара (Эвенкия, Россия): широта 60.33 долгота 102.30 высота над уровнем моря 260 м.
В архиве по умолчанию представлена погода в Ванаваре за последнюю неделю. Архивные данные за месяц целиком и за предыдущие месяцы, начиная с января 2011 года, Вы можете получить, выбрав интересующий диапазон дат из раскрывающегося списка и нажав кнопку "Найти!".
*Определитесь, кто Вы:
Внимание! Время в таблицах - всемирное. Для получения местного времени необходимо прибавить поправку, которая равна 7 ч.
Некоторые строки с данными для отдельных станций могут быть выделены курсивом. Это означает, что фактические данные отсутствуют по различным причинам, а приведенные значения являются расчетными модельными данными для данного пункта наблюдений.
Смотрите также архив погоды в соседних городах и на ближайших метеорологических станциях:
Партнеры нашего сайта:      
Пояснения к столбцам:
  • Ветер - указаны скорость ветра в м/с - средняя за 10 мин, порывы в срок и между сроками (в фигурных скобках) и направление, откуда дует ветер: С - северный,
  • СВ - северо-восточный, В - восточный, ЮВ - юго-восточный, Ю - южный, ЮЗ - юго-западный, З - западный, СЗ - северо-западный.
  • Видимость - горизонтальная дальность видимости в метрах или километрах. При видимости от 1 до 10 км при отсутствии осадков обычно наблюдается дымка, при ухудшении видимости до 1 км и менее - туман. В сухую погоду видимость может ухудшаться дымом, пылью или мглою.
  • Явления - указаны атмосферные явления, наблюдавшиеся в срок или в последний час перед сроком; фигурными скобками обозначены явления, наблюдавшиеся между сроками (за 1-3 часа до срока); квадратными скобками обозначены град или гололедные отложения с указанием их диаметра в мм.
  • Облачность - указаны через наклонную черту общая и нижняя облачность в баллах и высота нижней границы облаков в метрах; квадратными скобками обозначены формы облаков: Ci - перистые, Cs - перисто-слоистые, Cc - перисто-кучевые, Ac - высококучевые, As - высокослоистые, Sc - слоисто-кучевые, Ns - слоисто-дождевые, Cu - кучевые, Cb - кучево-дождевые. Подробнее классификацию облаков см. в Атласе облаков (PDF).
  • T - Температура воздуха - температура, измеренная на высоте 2 м над землей.
  • Td - Температура точки росы - температура, при понижении до которой содержащийся в воздухе водяной пар достигнет насыщения.
  • f - Относительная влажность воздуха - влажноcть воздуха, измеренная на высоте 2 м над землей.
  • Te - Эффективная температура - температура, которую ощущает одетый по сезону человек в тени. Характеристика душности погоды. При расчете учитывается влияние влажности воздуха и скорости ветра на теплоощущения человека.
  • Tes - Эффективная температура на солнце - температура, которую ощущает человек, с поправкой на солнечный нагрев. Характеристика знойности погоды. Зависит от высоты солнца над горизонтом, облачности и скорости ветра. Ночью, в пасмурную погоду, а также при ветре 12 м/с и более поправка равна нулю.
  • P - Атмосферное давление - приведенное к уровню моря атмосферное давление.
  • Po - Атмосферное давление - измеренное на уровне метеостанции атмосферное давление.
  • Tmin - Минимальная температура - минимум температуры воздуха на высоте 2 м над землей.
  • Tmax - Максимальная температура - максимум температуры воздуха на высоте 2 м над землей.
  • R - Количество осадков - Количество выпавших осадков за период времени, мм. При наведении курсора мыши на число - период времени, за который выпало указанное количество осадков.
  • R24 - Количество осадков - Количество выпавших осадков за 24 часа, мм.
  • S - Снежный покров - Высота снежного покрова, см. При наведении курсора мыши на число - состояние снежного покрова и степень покрытия местности в баллах.